Torna al catalogo

SL-16 DEB

AttivoLEO
NORAD 22577·DEBRIS·🇷🇺 Russia

Lanciato Mar 26, 1993 da Baikonur Cosmodrome

Loading…

Prossimi Passaggi (prossime 24 ore)

TLE

AggiornatoSource: Space-Track

Epoca: Sep 14, 2026, 14:31 UTC

1 22577U 93016E   26257.60545949  .00000043  00000-0  26934-4 0  9991
2 22577  71.0393 128.1231 0117885 291.2645  87.7569 14.43939011761950

Traccia SL-16 DEB in tempo reale con AllMySat

Download on the App Store